Location: Bishop�s Knoyle
(51.0728°N, 2.1714°W)
Time: 09:46:15
(UTC+00:00)

ATLAS CENTAUR R/B - Pass Details

Date: 17 January 2021
Orbit: 471 x 674 km, 64.6° (Epoch: 24 February)

Event Time Altitude Azimuth Distance (km) Brightness Sun altitude
Rises 07:19:35 0° 186° (S) 2,532 5.0 -6.9°
Reaches altitude 10° 07:22:01 10° 172° (S) 1,642 4.2 -6.6°
Maximum altitude 07:24:54 23° 119° (ESE) 1,059 4.1 -6.2°
Drops below altitude 10° 07:27:48 10° 65° (ENE) 1,641 4.4 -5.8°
Sets 07:30:14 0° 51° (NE) 2,531 5.1 -5.4°
